| time (UTC) | temp F | wind direction | speed knots | gust knots | rain 1hr in | rain 24hr in | rain mn in | humidity % | barometer mb |
| 20260508090024 | 35 | 250 | 0.0 | 1.7 | 0.00 | 0.01 | 0.01 | 92 | 1011.8 |
| 20260508084525 | 35 | 250 | 0.0 | 1.7 | 0.00 | 0.01 | 0.01 | 92 | 1011.8 |
| 20260508083012 | 36 | 250 | 0.0 | 2.6 | 0.00 | 0.01 | 0.01 | 92 | 1011.8 |
| 20260508081514 | 37 | 271 | 0.0 | 1.7 | 0.00 | 0.01 | 0.01 | 91 | 1011.8 |
| 20260508080020 | 37 | 279 | 0.0 | 2.6 | 0.00 | 0.01 | 0.01 | 91 | 1011.8 |
| 20260508074522 | 37 | 271 | 0.9 | 3.5 | 0.00 | 0.01 | 0.01 | 91 | 1011.7 |
| 20260508073028 | 37 | 246 | 0.9 | 2.6 | 0.00 | 0.01 | 0.01 | 91 | 1011.7 |
| 20260508071513 | 37 | 246 | 0.0 | 3.5 | 0.00 | 0.01 | 0.01 | 91 | 1011.6 |
| 20260508070015 | 38 | 296 | 0.9 | 6.1 | 0.00 | 0.01 | 0.01 | 91 | 1011.7 |
| 20260508064532 | 38 | 248 | 0.9 | 2.6 | 0.01 | 0.01 | 0.01 | 89 | 1011.7 |
| 20260508063025 | 38 | 252 | 0.9 | 2.6 | 0.01 | 0.01 | 0.01 | 88 | 1011.6 |
| 20260508061514 | 38 | 302 | 1.7 | 5.2 | 0.01 | 0.01 | 0.01 | 87 | 1011.7 |
| 20260508060016 | 39 | 307 | 0.9 | 8.7 | 0.01 | 0.01 | 0.01 | 86 | 1011.7 |
| 20260508054517 | 39 | 227 | 0.9 | 7.0 | 0.00 | 0.00 | 0.00 | 84 | 1011.5 |
| 20260508053024 | 40 | 286 | 1.7 | 7.8 | 0.00 | 0.00 | 0.00 | 80 | 1011.7 |
| 20260508051525 | 40 | 319 | 2.6 | 6.1 | 0.00 | 0.00 | 0.00 | 79 | 1011.4 |
| 20260508050018 | 40 | 299 | 2.6 | 7.8 | 0.00 | 0.00 | 0.00 | 76 | 1011.5 |
| 20260508044516 | 40 | 296 | 2.6 | 10.4 | 0.00 | 0.00 | 0.00 | 73 | 1011.4 |
| 20260508043021 | 40 | 303 | 4.3 | 7.8 | 0.00 | 0.00 | 0.00 | 72 | 1011.4 |
| 20260508041524 | 39 | 268 | 0.9 | 4.3 | 0.00 | 0.00 | 0.00 | 75 | 1011.1 |
| 20260508040036 | 39 | 273 | 0.9 | 3.5 | 0.00 | 0.00 | 0.00 | 75 | 1011.1 |
| 20260508034511 | 37 | 270 | 0.9 | 4.3 | 0.00 | 0.00 | 0.00 | 79 | 1011.1 |
| 20260508033021 | 36 | 297 | 0.0 | 1.7 | 0.00 | 0.00 | 0.00 | 80 | 1011.1 |
| 20260508031529 | 37 | 297 | 0.0 | 0.9 | 0.00 | 0.00 | 0.00 | 76 | 1011.0 |
| 20260508030025 | 37 | 297 | 0.0 | 0.0 | 0.00 | 0.00 | 0.00 | 74 | 1010.9 |
| 20260508024540 | 38 | 297 | 0.0 | 0.0 | 0.00 | 0.00 | 0.00 | 70 | 1011.0 |
| 20260508023024 | 39 | 297 | 0.0 | 0.9 | 0.00 | 0.00 | 0.00 | 66 | 1011.0 |
| 20260508021519 | 40 | 297 | 0.0 | 0.9 | 0.00 | 0.00 | 0.00 | 67 | 1011.0 |
| 20260508020022 | 40 | 297 | 0.0 | 1.7 | 0.00 | 0.00 | 0.00 | 63 | 1011.1 |
| 20260508014542 | 41 | 297 | 0.0 | 1.7 | 0.00 | 0.00 | 0.00 | 63 | 1011.2 |
| 20260508013029 | 42 | 297 | 0.0 | 1.7 | 0.00 | 0.00 | 0.00 | 61 | 1011.2 |
| 20260508011520 | 43 | 297 | 0.0 | 1.7 | 0.00 | 0.00 | 0.00 | 56 | 1011.0 |
| 20260508010027 | 44 | 277 | 0.0 | 2.6 | 0.00 | 0.00 | 0.00 | 58 | 1011.0 |
| 20260508004527 | 44 | 319 | 0.9 | 5.2 | 0.00 | 0.00 | 0.00 | 53 | 1010.7 |
| 20260508003031 | 45 | 313 | 1.7 | 4.3 | 0.00 | 0.00 | 0.00 | 53 | 1010.7 |
| 20260508001512 | 45 | 326 | 1.7 | 4.3 | 0.00 | 0.00 | 0.00 | 50 | 1010.6 |
| 20260508000019 | 46 | 340 | 1.7 | 7.8 | 0.00 | 0.00 | 0.00 | 47 | 1010.4 |
| 20260507234504 | 46 | 13 | 2.6 | 7.0 | 0.00 | 0.00 | 0.00 | 46 | 1010.4 |
| 20260507233006 | 47 | 10 | 3.5 | 8.7 | 0.00 | 0.00 | 0.00 | 44 | 1010.2 |
| 20260507231512 | 47 | 342 | 2.6 | 9.6 | 0.00 | 0.00 | 0.00 | 43 | 1010.2 |
| 20260507230017 | 48 | 347 | 3.5 | 8.7 | 0.00 | 0.00 | 0.00 | 42 | 1010.2 |
| 20260507224520 | 48 | 236 | 2.6 | 8.7 | 0.00 | 0.00 | 0.00 | 43 | 1010.2 |
| 20260507223004 | 48 | 295 | 1.7 | 7.0 | 0.00 | 0.00 | 0.00 | 43 | 1010.3 |
| 20260507221510 | 48 | 351 | 2.6 | 10.4 | 0.00 | 0.00 | 0.00 | 42 | 1010.2 |
| 20260507220014 | 49 | 318 | 4.3 | 11.3 | 0.00 | 0.00 | 0.00 | 40 | 1010.2 |
| 20260507214519 | 49 | 350 | 3.5 | 7.8 | 0.00 | 0.00 | 0.00 | 39 | 1010.4 |
| 20260507213024 | 49 | 28 | 2.6 | 11.3 | 0.00 | 0.00 | 0.00 | 41 | 1010.4 |
| 20260507211505 | 50 | 267 | 5.2 | 11.3 | 0.00 | 0.00 | 0.00 | 41 | 1010.3 |
| 20260507210011 | 50 | 321 | 8.7 | 13.9 | 0.00 | 0.00 | 0.00 | 36 | 1010.3 |
| 20260507204515 | 50 | 317 | 7.0 | 13.0 | 0.00 | 0.00 | 0.00 | 39 | 1010.3 |
| 20260507203019 | 50 | 300 | 6.1 | 13.0 | 0.00 | 0.00 | 0.00 | 41 | 1010.3 |
| 20260507201527 | 50 | 323 | 4.3 | 16.5 | 0.00 | 0.00 | 0.00 | 44 | 1010.6 |
| 20260507200010 | 50 | 305 | 8.7 | 15.6 | 0.00 | 0.00 | 0.00 | 43 | 1010.7 |
| 20260507194512 | 50 | 350 | 6.1 | 13.9 | 0.00 | 0.00 | 0.00 | 45 | 1010.9 |
| 20260507193020 | 50 | 306 | 5.2 | 13.0 | 0.00 | 0.00 | 0.00 | 46 | 1011.0 |
| 20260507191523 | 50 | 9 | 5.2 | 12.2 | 0.00 | 0.00 | 0.00 | 48 | 1011.2 |
| 20260507190028 | 49 | 341 | 8.7 | 13.9 | 0.00 | 0.00 | 0.00 | 50 | 1011.5 |
| 20260507184513 | 49 | 355 | 7.8 | 13.0 | 0.00 | 0.00 | 0.00 | 50 | 1011.5 |
| 20260507183014 | 48 | 322 | 7.8 | 13.0 | 0.00 | 0.00 | 0.00 | 51 | 1011.7 |
| 20260507181520 | 50 | 308 | 7.0 | 13.0 | 0.00 | 0.00 | 0.00 | 53 | 1011.6 |
| 20260507180023 | 48 | 293 | 7.0 | 14.8 | 0.00 | 0.00 | 0.00 | 52 | 1011.7 |
| 20260507174526 | 48 | 326 | 3.5 | 11.3 | 0.00 | 0.00 | 0.00 | 53 | 1011.6 |
| 20260507173013 | 48 | 349 | 6.1 | 15.6 | 0.00 | 0.00 | 0.00 | 53 | 1011.7 |
| 20260507171516 | 48 | 251 | 4.3 | 11.3 | 0.00 | 0.00 | 0.00 | 54 | 1011.7 |
| 20260507170025 | 48 | 328 | 4.3 | 13.0 | 0.00 | 0.00 | 0.00 | 57 | 1011.8 |
| 20260507164525 | 47 | 338 | 7.0 | 13.0 | 0.00 | 0.00 | 0.00 | 57 | 1011.9 |
| 20260507163027 | 47 | 319 | 6.1 | 13.9 | 0.00 | 0.00 | 0.00 | 56 | 1012.1 |
| 20260507161516 | 47 | 262 | 6.1 | 14.8 | 0.00 | 0.00 | 0.00 | 56 | 1012.3 |
| 20260507160021 | 46 | 348 | 5.2 | 9.6 | 0.00 | 0.00 | 0.00 | 59 | 1012.4 |
| 20260507154526 | 45 | 19 | 3.5 | 8.7 | 0.00 | 0.00 | 0.00 | 62 | 1012.4 |
| 20260507153003 | 45 | 316 | 7.0 | 10.4 | 0.00 | 0.00 | 0.00 | 58 | 1012.7 |
| 20260507151505 | 43 | 315 | 6.1 | 10.4 | 0.00 | 0.00 | 0.00 | 59 | 1012.8 |
| 20260507150010 | 43 | 307 | 4.3 | 11.3 | 0.00 | 0.00 | 0.00 | 61 | 1013.1 |
| 20260507144505 | 42 | 286 | 2.6 | 7.0 | 0.00 | 0.00 | 0.00 | 61 | 1013.2 |
| 20260507143004 | 41 | 319 | 2.6 | 6.1 | 0.00 | 0.00 | 0.00 | 60 | 1013.3 |
| 20260507141503 | 41 | 316 | 1.7 | 7.0 | 0.00 | 0.00 | 0.00 | 62 | 1013.3 |
| 20260507140004 | 40 | 296 | 1.7 | 8.7 | 0.00 | 0.01 | 0.00 | 64 | 1013.3 |
| 20260507134503 | 41 | 323 | 4.3 | 12.2 | 0.00 | 0.02 | 0.00 | 61 | 1013.5 |
| 20260507133003 | 41 | 302 | 6.1 | 10.4 | 0.00 | 0.03 | 0.00 | 62 | 1013.3 |
| 20260507131504 | 41 | 319 | 3.5 | 9.6 | 0.00 | 0.04 | 0.00 | 66 | 1013.2 |
| 20260507130005 | 40 | 277 | 3.5 | 7.0 | 0.00 | 0.04 | 0.00 | 65 | 1013.1 |
| 20260507124513 | 41 | 344 | 1.7 | 7.0 | 0.00 | 0.06 | 0.00 | 68 | 1013.1 |
| 20260507123005 | 39 | 340 | 5.2 | 8.7 | 0.00 | 0.08 | 0.00 | 68 | 1013.1 |
| 20260507121505 | 39 | 307 | 2.6 | 8.7 | 0.00 | 0.09 | 0.00 | 69 | 1013.1 |
| 20260507120005 | 38 | 318 | 1.7 | 8.7 | 0.00 | 0.10 | 0.00 | 73 | 1013.1 |
| 20260507114509 | 38 | 333 | 3.5 | 7.8 | 0.00 | 0.11 | 0.00 | 73 | 1013.0 |
| 20260507113008 | 37 | 292 | 0.9 | 4.3 | 0.00 | 0.13 | 0.00 | 78 | 1012.8 |
| 20260507111504 | 37 | 339 | 2.6 | 7.8 | 0.00 | 0.15 | 0.00 | 76 | 1012.8 |
| 20260507110012 | 35 | 298 | 2.6 | 6.1 | 0.00 | 0.18 | 0.00 | 81 | 1012.7 |
| 20260507104508 | 33 | 306 | 0.9 | 3.5 | 0.00 | 0.19 | 0.00 | 86 | 1012.6 |
| 20260507103010 | 32 | 273 | 0.0 | 2.6 | 0.00 | 0.21 | 0.00 | 90 | 1012.6 |
| 20260507101510 | 31 | 309 | 0.0 | 2.6 | 0.00 | 0.22 | 0.00 | 90 | 1012.3 |
| 20260507100010 | 31 | 269 | 0.0 | 0.9 | 0.00 | 0.23 | 0.00 | 89 | 1012.6 |
| 20260507094508 | 31 | 269 | 0.0 | 2.6 | 0.00 | 0.23 | 0.00 | 88 | 1012.4 |
| 20260507093008 | 31 | 249 | 0.9 | 2.6 | 0.00 | 0.24 | 0.00 | 88 | 1012.5 |
| 20260507091532 | 32 | 252 | 0.0 | 2.6 | 0.00 | 0.26 | 0.00 | 86 | 1012.5 |